Home   Weather   Addis Ababa   Past weeks

Flag for Ethiopia Past Weather in Addis Ababa, Ethiopia — Yesterday and Last 2 Weeks

Now
55 °F

Passing clouds.


Feels Like: 54 °F
Forecast: 51 / 80 °F
Wind: 6 mph from North

Location: Addis Ababa Airport

Current Time: Apr 24, 2017 at 8:45:14 am

Latest Report: Apr 24, 2017 at 7:00 am


Visibility: N/A

Pressure: 30.30 "Hg (22.87 "Hg at 2354m altitude)

Humidity: 38%

Dew Point: 30 °F

Location of Addis AbabaLocation

Past Weather in Addis Ababa — Graph

°F

Addis Ababa Temperature Yesterday

Maximum temperature yesterday: 81 °F (at 2:00 pm)
Minimum temperature yesterday: 55 °F (at 4:00 am)
Average temperature yesterday: 69 °F

High & Low Weather Summary for the Past Weeks

 TemperatureHumidityPressure
High81 °F (Apr 15, 2:00 pm)82% (Apr 20, 7:00 am)30.36 "Hg (Apr 20, 7:00 am)
Low52 °F (Apr 11, 5:00 am)18% (Apr 23, 2:00 pm)30.18 "Hg (Apr 11, 5:00 pm)
Average69 °F39%30.28 "Hg
* Reported Apr 9 8:00 am — Apr 24 7:00 am, Addis Ababa, Weather by CustomWeather, © 2017

Note: Actual official high and low records may vary slightly from our data, if they occured in-between our weather recording intervals... More about our weather records

Advertising

Addis Ababa Weather History for the Previous 24 Hours

Scroll right to see more
 ConditionsComfort  
Time TempWeatherWind HumidityBarometerVisibility
7:00 am
Mon, Apr 24
55 °FPassing clouds.6 mph38%30.30 "HgN/A
6:00 am52 °FPassing clouds.5 mph41%30.27 "HgN/A
3:00 am55 °FPassing clouds.5 mph38%30.27 "HgN/A
12:00 am61 °FPassing clouds.5 mph31%30.30 "HgN/A
11:00 pm
Sun, Apr 23
68 °FPassing clouds.5 mph18%30.33 "HgN/A
9:00 pm66 °FPassing clouds.9 mph21%30.30 "HgN/A
8:00 pm68 °FPassing clouds.7 mph21%30.27 "HgN/A
7:00 pm72 °FPassing clouds.13 mph31%30.24 "HgN/A
5:00 pm81 °FPassing clouds.16 mph18%30.21 "HgN/A
2:00 pm81 °FPassing clouds.12 mph18%30.33 "HgN/A
1:00 pm79 °FPassing clouds.6 mph20%30.30 "HgN/A
12:00 pm77 °FPassing clouds.12 mph21%30.33 "HgN/A
11:00 am75 °FSmoke.12 mph19%30.36 "HgN/A
10:00 am73 °FPassing clouds.7 mph20%30.36 "HgN/A
9:00 am68 °FHaze.7 mph28%30.36 "Hg6 mi
8:00 am63 °FSunny.3 mph39%30.36 "Hg6 mi
Weather by CustomWeather, © 2017

See weather overviewHow to use our weather pages